www.pogodaiklimat.ru

Погода и климат >> Архив погоды >> Австрия >> Вена


АРХИВ ПОГОДЫ в Вене

Время (UTC), дата Ветер
(напр.,м/с)
 
Видим.   Явления Облачность Т
(С)
Тd
(С)
f
(%)
Тe
(С)
Тes
(С)
Комфортность P
(гПа)
Po
(гПа)
Тmin
(С)
Tmax
(С)
R
(мм)
R24
(мм)
S
(см)
01 11.09 Ю 1 н/о н/о +12.1 +10.9 92 +12 +12 по сезону 1021.1 996.2
02 11.09 штиль 0 н/о н/о +11.6 +10.6 94 +11 +11 по сезону 1021.2 996.2
03 11.09 С 2 н/о н/о +11.4 +10.4 94 +10 +10 прохладно 1021.3 996.3
04 11.09 С 2 н/о н/о +11.2 +10.1 93 +10 +10 по сезону 1021.6 996.6
05 11.09 С 1 40 км 4/0
[Ci fib]
+11.1 +10.3 95 +11 +11 по сезону 1022.3 997.2
06 11.09 СВ 1 40 км 4/0
[Ci fib]
+12.7 +10.8 88 +13 +14 по сезону 1022.7 997.8 +10.7 +18.0
07 11.09 В 2 45 км 3/0
[Ci fib]
+15.2 +11.4 78 +15 +18 по сезону 1022.8 998.1
08 11.09 В 2 45 км 4/0
[Ci fib]
+16.7 +12.0 74 +17 +22 тепло 1023.3 998.7
09 11.09 ЮВ 3 50 км 4/0
[Ci fib]
+19.1 +13.0 68 +20 +27 тепло 1023.2 998.8
10 11.09 ЮВ 3 60 км 3/0
[Ci fib]
+20.6 +12.5 60 +23 +31 комфорт 1023.1 998.8
11 11.09 ЮВ 4 60 км 3/1 1200 м
[Cu hum Ac trans Ci fib]
+21.9 +12.7 56 +24 +30 комфорт 1022.7 998.5
12 11.09 ЮВ 4 60 км 3/1 1200 м
[Cu hum Ac trans Ci fib]
+22.4 +12.0 52 +25 +30 комфорт 1022.4 998.3
13 11.09 ЮВ 3 60 км 3/0
[Ac trans Ci sp]
+23.2 +11.6 48 +26 +32 жарко 1022.2 998.2
14 11.09 ЮВ 4 60 км 4/1 1200 м
[Cu hum Ac trans Ci sp]
+23.1 +12.4 51 +26 +29 жарко 1022.0 998.0
15 11.09 В 3 60 км 3/0
[Ac trans Ci fib]
+23.0 +10.8 46 +25 +27 комфорт 1022.1 998.0
16 11.09 ЮВ 4 60 км 3/1 1200 м
[Cu hum Ac trans Ci fib]
+21.6 +10.1 48 +23 +24 комфорт 1022.3 998.1
17 11.09 ЮВ 2 60 км 6/0
[Ac lent Ci sp]
+19.9 +10.0 53 +22 +22 комфорт 1022.7 998.4
18 11.09 ЮВ 2 60 км 9/0
[Ac lent Cc]
+18.1 +11.2 64 +19 +19 тепло 1023.5 999.0 +12.7 +23.4 0.0
19 11.09 З 1 60 км 9/0
[Ac lent Cc]
+16.7 +11.6 72 +18 +18 тепло 1024.1 999.5
20 11.09 штиль 0 55 км 9/0
[Ac lent Ci sp]
+15.5 +11.9 79 +15 +15 по сезону 1024.8 1000.1
21 11.09 З 2 50 км 3/0
[Ci sp]
+15.2 +11.4 78 +15 +15 по сезону 1025.3 1000.5
22 11.09 З 3 н/о н/о +15.2 +12.2 82 +14 +14 тепло 1025.6 1000.8
23 11.09 З 4 н/о н/о +17.2 +12.6 74 +17 +17 тепло 1025.7 1001.1
00 12.09 З 6 60 км 9/9 1500 м
[Sc]
+18.2 +12.6 70 +18 +18 тепло 1025.3 1000.8
01 12.09 З 5 н/о н/о +17.8 +12.9 73 +17 +17 тепло 1025.7 1001.1
02 12.09 З 4 н/о н/о +17.4 +12.8 74 +17 +17 тепло 1026.1 1001.5
03 12.09 З 3 н/о н/о +17.2 +12.5 74 +17 +17 тепло 1026.5 1001.9
04 12.09 З 3 н/о н/о +17.0 +12.3 74 +17 +17 тепло 1027.3 1002.6
05 12.09 З 3 40 км 4/3
[Sc Ac trans]
+16.8 +11.7 72 +17 +17 тепло 1028.1 1003.4
06 12.09 З 4 40 км 1/1 1500 м
[Sc Ac trans]
+17.2 +12.5 74 +17 +17 тепло 1028.4 1003.7 +14.8 +18.2
07 12.09 З 6 40 км 1/1 1500 м
[Sc]
+18.8 +12.3 66 +19 +20 тепло 1029.2 1004.6
08 12.09 З 4 40 км ясно +20.0 +11.7 59 +22 +26 комфорт 1029.7 1005.2
09 12.09 З 4 40 км 1/1 1200 м
[Cu hum]
+21.5 +12.1 55 +24 +29 комфорт 1029.9 1005.5
10 12.09 З 4 40 км 1/1 1200 м
[Cu hum]
+22.5 +12.7 54 +25 +31 комфорт 1029.9 1005.6
11 12.09 З 5 45 км 3/3 1200 м
[Cu med, cong]
+22.3 +12.0 52 +25 +29 комфорт 1029.8 1005.5
12 12.09 З 4 50 км 1/1 1350 м
[Cu med, cong]
+23.7 +11.1 45 +25 +31 комфорт 1029.4 1005.2
13 12.09 З 5 50 км 1/1 1380 м
[Cu med, cong]
+23.7 +10.7 44 +25 +29 комфорт 1029.1 1004.9
14 12.09 З 5 55 км 1/1 1350 м
[Cu hum Ac trans Ci fib]
+23.6 +10.6 44 +25 +27 комфорт 1029.1 1004.9
15 12.09 З 6 55 км 3/1 1260 м
[Sc diur, vesp Ac lent Ci fib]
+22.5 +11.2 49 +25 +26 комфорт 1029.1 1004.8
16 12.09 З 4 60 км 1/1 1260 м
[Sc diur, vesp Ac lent Ci fib]
+21.6 +10.7 50 +23 +24 комфорт 1029.0 1004.7
17 12.09 З 3 60 км 1/1 1350 м
[Sc diur, vesp Ac lent Ci fib]
+20.4 +11.1 55 +22 +22 комфорт 1029.2 1004.8
18 12.09 З 3 50 км 1/1 1200 м
[Sc Ac trans Ci fib]
+18.8 +11.4 62 +20 +20 тепло 1029.6 1005.0 +17.3 +24.0
20 12.09 СЗ 5 40 км 1/0
[Ci fib]
+19.3 +10.8 58 +20 +20 тепло 1030.1 1005.5
21 12.09 СЗ 5 40 км 1/0
[Ci fib]
+18.9 +11.0 60 +19 +19 тепло 1030.1 1005.5
22 12.09 СЗ 5 н/о н/о +19.0 +10.9 59 +20 +20 тепло 1030.2 1005.6
23 12.09 З 5 н/о н/о +19.2 +11.0 59 +20 +20 тепло 1030.2 1005.6
00 13.09 З 4 40 км 9/9 1500 м
[Sc]
+19.1 +11.1 60 +20 +20 тепло 1030.1 1005.5
01 13.09 З 4 н/о н/о +18.4 +11.4 64 +19 +19 тепло 1030.1 1005.5
02 13.09 З 3 н/о н/о +17.7 +11.5 67 +18 +18 тепло 1030.2 1005.5
03 13.09 СЗ 1 н/о н/о +17.3 +12.0 71 +18 +18 тепло 1029.9 1005.2
04 13.09 З 2 н/о н/о +17.3 +12.4 73 +18 +18 тепло 1029.9 1005.2
05 13.09 СЗ 2 60 км 6/5 1500 м
[Sc Ac trans]
+16.0 +12.0 77 +16 +16 тепло 1030.3 1005.5
06 13.09 В 1 50 км 8/8 2000 м
[Sc]
+17.1 +12.6 75 +18 +18 тепло 1030.1 1005.4 +15.8 +19.5
07 13.09 штиль 0 50 км 4/4 2000 м
[Sc]
+19.1 +13.2 69 +20 +23 тепло 1030.1 1005.5
08 13.09 СЗ 3 50 км 6/6 2000 м
[Sc]
+21.5 +12.9 58 +24 +26 комфорт 1030.1 1005.7
09 13.09 СЗ 4 50 км 6/6 1350 м
[Cu Sc]
+22.4 +13.2 56 +25 +28 комфорт 1030.0 1005.7
10 13.09 СЗ 2 55 км 1/1 1260 м
[Cu hum]
+23.6 +13.4 53 +26 +35 жарко 1029.2 1005.0
11 13.09 СЗ 4 60 км 5/5 1260 м
[Cu hum]
+24.0 +14.1 54 +26 +30 жарко 1029.1 1005.0
12 13.09 СЗ 2 60 км 5/5 1350 м
[Cu hum]
+25.2 +13.4 48 +27 +32 жарко 1028.6 1004.6
13 13.09 З 4 60 км 6/6 1350 м
[Cu hum]
+26.1 +14.5 49 +29 +31 жарко 1028.3 1004.4
14 13.09 СЗ 3 60 км 6/6 1140 м
[Cu Sc]
+24.1 +14.2 54 +27 +28 жарко 1028.2 1004.1
15 13.09 СЗ 3 60 км 4/4 1140 м
[Cu Sc]
+25.6 +12.8 45 +27 +29 жарко 1027.9 1003.9
16 13.09 СЗ 3 >70 км 8/8 1500 м
[Sc]
+24.1 +13.0 50 +26 +26 жарко 1028.0 1003.9
17 13.09 СЗ 3 >70 км 8/8 1500 м
[Sc]
+23.3 +13.4 54 +27 +27 душно 1028.1 1003.9
18 13.09 С 3 н/о н/о +22.6 +13.7 57 +26 +26 жарко 1028.7 1004.5 +17.0 +26.1
19 13.09 С 3 50 км 10/10 2000 м
[Sc]
+22.4 +13.2 56 +25 +25 комфорт 1029.1 1004.8
20 13.09 С 3 40 км 10/10 2000 м
[Sc]
+21.9 +13.5 59 +25 +25 комфорт 1029.1 1004.8
21 13.09 С 3 40 км 10/10 210 м
[Sc]
+20.9 +13.8 64 +24 +24 комфорт 1029.5 1005.1
22 13.09 СЗ 4 н/о н/о +20.6 +13.6 64 +23 +23 комфорт 1029.5 1005.1
23 13.09 СЗ 2 н/о н/о +19.4 +13.6 69 +21 +21 комфорт 1029.6 1005.1
00 14.09 В 1 40 км 8/8 2000 м
[Sc]
+17.8 +13.7 77 +19 +19 тепло 1029.9 1005.2
01 14.09 В 1 н/о н/о +17.9 +14.1 78 +19 +19 тепло 1030.1 1005.5
02 14.09 С 1 н/о н/о +17.2 +13.9 81 +18 +18 тепло 1030.2 1005.5
03 14.09 С 2 н/о н/о +18.4 +13.5 73 +19 +19 тепло 1030.2 1005.6
04 14.09 СВ 3 н/о н/о +17.2 +13.1 77 +17 +17 тепло 1031.0 1006.3
05 14.09 СВ 2 60 км 9/4 1140 м
[Sc Ac trans]
+16.7 +11.8 73 +17 +17 тепло 1031.5 1006.7
06 14.09 С 2 60 км 9/9 1080 м
[Sc]
+16.8 +11.3 70 +17 +17 тепло 1032.0 1007.2 +16.6 +22.7
07 14.09 С 2 55 км 9/6 1200 м
[Sc Ac trans Ci fib]
+17.5 +11.3 67 +18 +19 тепло 1032.5 1007.7
08 14.09 С 4 55 км 9/6 1020 м
[Cu Sc Ac trans Ci fib]
+17.6 +11.2 66 +17 +18 тепло 1032.8 1008.0
09 14.09 С 2 55 км 8/6 1000 м
[Cu Sc Ci fib]
+18.6 +10.9 61 +20 +23 тепло 1032.7 1008.0
10 14.09 С 3 55 км 9/1 1020 м
[Cu Sc Ci fib]
+19.7 +10.7 56 +21 +27 комфорт 1032.3 1007.7
11 14.09 С 3 60 км 9/3 1140 м
[Cu hum Ci fib]
+20.4 +9.9 51 +22 +27 комфорт 1031.5 1007.0
12 14.09 С 2 60 км 9/4 1260 м
[Cu hum Ci fib]
+21.3 +11.0 52 +23 +28 комфорт 1031.0 1006.6
13 14.09 СВ 4 60 км 9/3 1260 м
[Cu hum Ac trans Ci fib]
+20.9 +10.7 52 +23 +25 комфорт 1030.6 1006.2
14 14.09 С 2 >70 км 6/1 1260 м
[Cu hum Ci fib]
+21.3 +10.8 51 +23 +27 комфорт 1030.0 1005.6
15 14.09 С 3 60 км 3/1 1350 м
[Cu hum Ci fib]
+20.5 +10.9 54 +23 +24 комфорт 1029.4 1005.0
16 14.09 СВ 2 60 км 1/1 1350 м
[Sc diur, vesp Ci fib]
+20.0 +10.7 55 +22 +23 комфорт 1028.9 1004.4
17 14.09 СЗ 2 60 км 1/1 1350 м
[Sc diur, vesp Ci fib]
+18.2 +10.8 62 +19 +19 тепло 1029.0 1004.4
18 14.09 СЗ 2 50 км 1/1 1350 м
[Sc diur, vesp Ci fib]
+16.8 +11.3 70 +17 +17 по сезону 1029.3 1004.6 +16.7 +21.7
19 14.09 В 2 50 км 3/0
[Ci fib]
+15.5 +11.1 75 +15 +15 по сезону 1029.9 1005.0
20 14.09 С 1 50 км ясно +14.3 +10.9 80 +15 +15 по сезону 1030.0 1005.0
21 14.09 СВ 1 50 км ясно +13.4 +10.2 81 +14 +14 по сезону 1030.5 1005.4
22 14.09 С 2 н/о н/о +13.0 +8.5 74 +12 +12 по сезону 1030.6 1005.5
23 14.09 З 1 н/о н/о +12.2 +8.4 78 +12 +12 по сезону 1030.3 1005.1
00 15.09 З 3 50 км ясно +11.6 +7.9 78 +10 +10 прохладно 1029.6 1004.4
01 15.09 С 2 н/о н/о +11.0 +7.6 80 +10 +10 по сезону 1029.3 1004.0
02 15.09 С 1 н/о н/о +10.5 +7.3 81 +10 +10 по сезону 1028.8 1003.5
03 15.09 штиль 0 н/о н/о +10.4 +7.4 82 +10 +10 прохладно 1028.7 1003.4
04 15.09 СЗ 1 н/о н/о +9.9 +7.4 84 +9 +9 по сезону 1028.2 1002.9
05 15.09 В 1 30 км 1/0
[Ac trans]
+9.6 +7.7 88 +9 +9 по сезону 1028.3 1002.9
06 15.09 СВ 1 25 км 1/0
[Ac trans]
+11.6 +8.3 80 +11 +12 по сезону 1027.9 1002.7 +9.5 +16.8
07 15.09 В 1 30 км 1/0
[Ac trans]
+13.9 +8.5 70 +14 +17 по сезону 1027.8 1002.8
08 15.09 Ю 3 35 км 1/0
[Ac trans]
+15.5 +8.5 63 +15 +19 по сезону 1026.9 1002.1
09 15.09 Ю 3 30 км ясно +18.4 +9.5 56 +19 +26 тепло 1026.4 1001.8
10 15.09 ЮВ 2 30 км ясно +19.7 +10.0 53 +21 +21 комфорт 1025.7 1001.3
11 15.09 ЮВ 1 30 км 1/1 1500 м
[Sc]
+21.1 +11.4 54 +23 +34 комфорт 1024.7 1000.4
12 15.09 В 3 50 км 3/1 1500 м
[Cu hum Ci fib]
+22.4 +12.0 52 +25 +32 комфорт 1023.8 999.7
13 15.09 ЮВ 2 50 км 3/1 1500 м
[Cu hum Ci fib]
+22.9 +12.2 51 +26 +32 жарко 1023.1 999.0
14 15.09 В 2 50 км 1/1 1500 м
[Cu hum Ci fib]
+23.7 +12.0 48 +25 +30 комфорт 1022.1 998.1
15 15.09 В 2 55 км 1/0
[Ci fib]
+23.9 +12.8 50 +26 +28 жарко 1021.3 997.3
16 15.09 Ю 2 55 км 1/0
[Ci fib]
+23.1 +13.3 54 +26 +27 жарко 1020.5 996.5
17 15.09 Ю 2 55 км 1/0
[Ci fib]
+22.2 +13.2 57 +25 +25 комфорт 1020.0 995.9
18 15.09 ЮЗ 1 55 км 1/0
[Ci fib]
+19.7 +13.8 69 +23 +23 комфорт 1020.2 995.9 +11.7 +24.2
19 15.09 СЗ 2 50 км 1/0
[Ci fib]
+17.7 +14.0 79 +18 +18 тепло 1020.4 996.0
20 15.09 СВ 1 45 км 1/0
[Ci fib]
+16.4 +13.7 84 +17 +17 тепло 1020.4 995.9
21 15.09 З 2 40 км 1/0
[Ci fib]
+16.1 +13.5 85 +16 +16 по сезону 1020.3 995.7
22 15.09 З 2 н/о н/о +16.2 +13.7 85 +16 +16 тепло 1020.4 995.8
23 15.09 З 2 н/о н/о +15.9 +14.0 88 +16 +16 тепло 1020.3 995.7
00 16.09 Ю 1 35 км 1/0
[Ci fib]
+15.9 +14.0 88 +17 +17 тепло 1019.8 995.2
01 16.09 В 2 н/о н/о +15.6 +14.1 91 +15 +15 тепло 1019.6 995.0
02 16.09 Ю 1 н/о н/о +15.1 +14.0 93 +16 +16 тепло 1019.4 994.8
03 16.09 З 1 н/о н/о +15.0 +14.0 94 +15 +15 тепло 1019.1 994.5
04 16.09 В 1 н/о н/о +14.8 +13.9 94 +15 +15 тепло 1019.0 994.4
05 16.09 Ю 1 25 км 6/3 1500 м
[Cu Sc Ac trans Ci fib]
+14.5 +13.7 95 +15 +15 тепло 1019.0 994.3
06 16.09 В 1 26 км 5/3 1500 м
[Cu Sc Ac trans Ci fib]
+16.2 +14.8 91 +17 +18 тепло 1018.8 994.3 +14.4 +19.5
07 16.09 В 2 26 км 6/4 1500 м
[Cu Sc Ac trans Ci fib]
+18.0 +15.3 84 +19 +20 тепло 1019.2 994.8
08 16.09 В 1 23 км 6/4 1440 м
[Cu Sc Ac trans Ci fib]
+20.9 +16.5 76 +26 +29 душно 1019.0 994.9
09 16.09 С 4 35 км 8/1 1470 м
[Cu hum Ac trans Ci fib]
+23.2 +13.6 55 +27 +29 душно 1018.9 994.9
10 16.09 СЗ 3 45 км 6/1 1500 м
[Cu hum Ac trans Ci fib]
+24.3 +10.9 43 +26 +31 жарко 1018.5 994.6
11 16.09 З 4 50 км 6/1 1500 м
[Cu med, cong Ac trans Ci fib]
+24.9 +13.1 48 +27 +31 жарко 1017.7 993.9
12 16.09 З 2 55 км 6/1 1500 м
[Cu med, cong Ac trans Ci sp]
+25.8 +14.5 50 +28 +34 жарко 1016.7 993.0
13 16.09 СЗ 3 55 км 6/1 1500 м
[Cu med, cong Ac trans Ci sp]
+26.3 +14.4 48 +29 +33 жарко 1016.0 992.4
14 16.09 СЗ 2 55 км 5/1 1500 м
[Cu med, cong Ac trans Ci sp]
+25.4 +15.2 53 +28 +32 жарко 1015.4 991.7
15 16.09 СЗ 1 55 км 8/1 1500 м
[Cu med, cong Ac trans Ci fib]
+25.4 +13.6 48 +28 +29 жарко 1015.0 991.3
16 16.09 З 3 55 км 8/1 1500 м
[Cu med, cong Ac trans Ci fib]
+24.9 +11.8 44 +26 +27 жарко 1014.5 990.8
17 16.09 СЗ 3 55 км 8/1 1500 м
[Cu med, cong Ac trans Ci fib]
+22.9 +13.1 54 +26 +26 жарко 1014.6 990.7
18 16.09 СЗ 4 40 км 8/1 1500 м
[Cu hum Ac trans Ci fib]
+22.6 +13.3 56 +26 +26 жарко 1014.9 991.0 +16.3 +26.4
19 16.09 СЗ 3 30 км 9/5 1200 м
[Sc Ac trans]
+21.6 +13.5 60 +24 +24 комфорт 1015.0 991.0
20 16.09 З 4 30 км 9/3 1200 м
[Sc Ac trans]
+21.5 +13.1 59 +24 +24 комфорт 1015.3 991.3
21 16.09 СЗ 4 25 км 9/1 1200 м
[Sc Ac As]
+22.1 +12.1 53 +24 +24 комфорт 1015.3 991.3
22 16.09 СЗ 3 н/о н/о +21.5 +11.2 52 +23 +23 комфорт 1015.1 991.1
23 16.09 З 3 н/о н/о +20.5 +11.5 56 +23 +23 комфорт 1015.1 991.0 0.0
00 17.09 СЗ 2 30 км в посл. час дождь 10/10 1500 м
[Sc]
+20.3 +11.2 56 +23 +23 комфорт 1014.7 990.6 0.0
01 17.09 СЗ 3 н/о н/о +19.1 +11.2 60 +20 +20 тепло 1014.7 990.5
02 17.09 СЗ 3 н/о н/о +19.9 +11.4 58 +22 +22 комфорт 1014.5 990.4
03 17.09 СЗ 3 н/о н/о +19.4 +11.4 60 +21 +21 комфорт 1014.5 990.3
04 17.09 З 3 н/о н/о +18.9 +11.7 63 +20 +20 тепло 1014.4 990.2
05 17.09 СЗ 4 40 км 8/5
[Sc Ac As]
+19.2 +11.7 62 +20 +20 тепло 1014.9 990.7
06 17.09 СЗ 4 40 км в посл. час дождь 9/5
[Sc Ac As]
+18.8 +12.3 66 +20 +20 тепло 1015.2 991.0 +18.6 +22.9 0.0
07 17.09 С 4 35 км 6/4 1500 м
[Sc Ac As Ci fib]
+19.2 +13.1 68 +20 +21 тепло 1015.5 991.3
08 17.09 С 5 35 км 8/6 1110 м
[Cu Sc Ac As]
+19.0 +13.4 70 +20 +20 тепло 1015.8 991.6
09 17.09 С 3 40 км слаб. дождь 9/8 930 м
[Cu Sc Ac As]
+17.2 +12.9 76 +17 +18 тепло 1016.5 992.1 0.0
10 17.09 С 3 35 км в посл. час дождь 9/8 960 м
[Cu Sc Ac As]
+15.2 +10.6 74 +15 +16 прохладно 1016.7 992.1 0.0
11 17.09 С 1 35 км слаб. дождь 10/9 900 м
[Cu Sc]
+15.7 +10.5 71 +16 +17 прохладно 1016.3 991.8 0.0
12 17.09 С 1 35 км слаб. дождь 10/10 1050 м
[Cu Sc]
+16.0 +12.1 78 +17 +17 по сезону 1015.6 991.1 0.0
13 17.09 35 км слаб. дождь н/о +15.9 +12.0 78 +17 +17 по сезону 1015.2 990.7 0.0
14 17.09 штиль 0 40 км в посл. час дождь 8/6 1050 м
[Cu Sc Ci fib]
+16.9 +12.6 76 +17 +19 по сезону 1014.5 990.1 0.0
15 17.09 СЗ 2 45 км {дождь} 8/6 1020 м
[Cu Sc Ci fib]
+18.4 +13.0 71 +19 +20 тепло 1013.9 989.7 0.0
16 17.09 З 1 45 км 6/4 1020 м
[Cu Sc Ci fib]
+17.9 +13.2 74 +19 +19 тепло 1013.4 989.1
17 17.09 СЗ 2 40 км 6/5 1020 м
[Cu Sc Ci fib]
+17.2 +13.3 78 +18 +18 тепло 1013.6 989.3
18 17.09 СЗ 3 40 км {дождь} 1/1 1500 м
[Cu Sc]
+15.3 +12.9 86 +15 +15 по сезону 1014.4 989.9 +15.2 +19.4 0.0
19 17.09 З 4 30 км ясно +16.3 +11.8 75 +16 +16 тепло 1014.9 990.5
20 17.09 З 4 30 км 6/0
[Ci fib]
+15.8 +11.2 74 +15 +15 по сезону 1015.8 991.3
21 17.09 З 4 30 км 5/0
[Ci fib]
+15.5 +10.7 73 +15 +15 по сезону 1016.0 991.5
22 17.09 З 3 н/о н/о +16.2 +10.1 67 +16 +16 тепло 1016.6 992.1
23 17.09 З 3 н/о н/о +16.0 +9.8 67 +16 +16 тепло 1017.0 992.5
00 18.09 С 3 30 км 9/9 1440 м
[Sc]
+15.6 +9.3 66 +15 +15 тепло 1017.8 993.2

 

Местоположение метеостанции Вена (Австрия): широта 48.25 долгота 16.37 высота над уровнем моря 200 м.

В архиве по умолчанию представлена погода в Вене за последнюю неделю. Архивные данные за месяц целиком и за предыдущие месяцы, начиная с января 2011 года, Вы можете получить, выбрав интересующий диапазон дат из раскрывающегося списка и нажав кнопку "Ввод!".


*Определитесь, кто Вы:
робот инопланетянин человек

Внимание! Время в таблицах - всемирное. Для получения местного времени необходимо прибавить поправку, которая равна 1 ч.

Смотрите также архив погоды в соседних городах и на ближайших метеорологических станциях:

Погода в Вене Донауфельд (Австрия) (4 км)
Погода в Вене город (Австрия) (6 км)
Погода в Мариябрунн (Австрия) (12 км)
Погода в Вене электроподстанция (Австрия) (14 км)
Погода в Грос-Энцерсдорфе (Австрия) (16 км)
Погода в Тульн-ан-дер-Донау (Австрия) (20 км)
Погода в Штоккерау (Австрия) (20 км)
Погода в Вене аэропорт (Австрия) (21 км)
Погода в Гумпольдскирхене (Австрия) (25 км)
Погода в Зайберсдорфе (Австрия) (32 км)

Пояснения к столбцам:

Ветер - указаны скорость ветра в м/с - средняя за 10 мин, порывы в срок и между сроками (в фигурных скобках) и направление, откуда дует ветер: С - северный, СВ - северо-восточный, В - восточный, ЮВ - юго-восточный, Ю - южный, ЮЗ - юго-западный, З - западный, СЗ - северо-западный.
Видимость - горизонтальная дальность видимости в метрах или километрах. При видимости от 1 до 10 км при отсутствии осадков обычно наблюдается дымка, при ухудшении видимости до 1 км и менее - туман. В сухую погоду видимость может ухудшаться дымом, пылью или мглою.
Явления - указаны атмосферные явления, наблюдавшиеся в срок или в последний час перед сроком; фигурными скобками обозначены явления, наблюдавшиеся между сроками (за 1-3 часа до срока); квадратными скобками обозначены град или гололедные отложения с указанием их диаметра в мм.
Облачность - указаны через наклонную черту общая и нижняя облачность в баллах и высота нижней границы облаков в метрах; квадратными скобками обозначены формы облаков: Ci - перистые, Cs - перисто-слоистые, Cc - перисто-кучевые, Ac - высококучевые, As - высокослоистые, Sc - слоисто-кучевые, Ns - слоисто-дождевые, Cu - кучевые, Cb - кучево-дождевые. Подробнее классификацию облаков см. в Атласе облаков (PDF).
T - Температура воздуха - температура, измеренная на высоте 2 м над землей.
Td - Температура точки росы - температура, при понижении до которой содержащийся в воздухе водяной пар достигнет насыщения.
f - Относительная влажность воздуха - влажноcть воздуха, измеренная на высоте 2 м над землей.
Te - Эффективная температура - температура, которую ощущает одетый по сезону человек в тени. Характеристика душности погоды. При расчете учитывается влияние влажности воздуха и скорости ветра на теплоощущения человека.
Tes - Эффективная температура на солнце - температура, которую ощущает человек, с поправкой на солнечный нагрев. Характеристика знойности погоды. Зависит от высоты солнца над горизонтом, облачности и скорости ветра. Ночью, в пасмурную погоду, а также при ветре 12 м/с и более поправка равна нулю.
P - Атмосферное давление - приведенное к уровню моря атмосферное давление.
Po - Атмосферное давление - измеренное на уровне метеостанции атмосферное давление.
Tmin - Минимальная температура - минимум температуры воздуха на высоте 2 м над землей.
Tmax - Максимальная температура - максимум температуры воздуха на высоте 2 м над землей.
R - Количество осадков - Количество выпавших осадков за период времени, мм. При наведении курсора мыши на число - период времени, за который выпало указанное количество осадков.
R24 - Количество осадков - Количество выпавших осадков за 24 часа, мм.
S - Снежный покров - Высота снежного покрова, см. При наведении курсора мыши на число - состояние снежного покрова и степень покрытия местности в баллах.